Preview of NWS' New Version of Forecast
This preview is not operational and should not be used for support decisions.

Regional Weather Roundup (RWR)

Issued by National Weather Service (NWS)

                            
000
ASUS43 KLSX 221257
RWRMO 

WEATHER SUMMARY FOR MISSOURI
NATIONAL WEATHER SERVICE SPRINGFIELD MO
800 AM CDT WED MAY 22 2019

NOTE: "FAIR" INDICATES FEW OR NO CLOUDS BELOW 12,000 FEET WITH NO
       SIGNIFICANT WEATHER AND/OR OBSTRUCTIONS TO VISIBILITY.
       CURRENT SKY AND/OR WEATHER CONDITIONS ARE NOT AVAILABLE FOR
       CHILLICOTHE AND FARMINGTON.

MOZ001>031-035>038-043-044-053-054-221400-
...NORTHERN AND WESTERN MISSOURI...
  
CITY           SKY/WX    TMP DP  RH WIND       PRES   REMARKS
KANSAS CTY INT MOSUNNY   57  50  77 SW10      29.67R                  
LEE'S SUMMIT   SUNNY     60  53  77 SW10G21   29.68R                  
ST JOSEPH      MOSUNNY   55  48  77 SW14      29.64R                  
CHILLICOTHE      N/A     62  55  77 S8        29.67R                  
     
$$
MOZ066>068-077>081-088>096-101>105-221400-
...SOUTHWEST MISSOURI...
  
CITY           SKY/WX    TMP DP  RH WIND       PRES   REMARKS
SPRINGFIELD    CLOUDY    60  51  72 S15       29.76R                  
JOPLIN         MOSUNNY   62  53  72 S9        29.76R                  
BRANSON        PTSUNNY   63  50  63 SE8       29.81R                  
               
$$
MOZ032>034-039>042-045>050-055>058-069>072-221400-
...CENTRAL MISSOURI...  
  
CITY           SKY/WX    TMP DP  RH WIND       PRES   REMARKS
COLUMBIA       NOT AVBL                                               
JEFFERSON CITY SUNNY     61  53  75 E7        29.75R                  
ROLLA          CLOUDY    61  51  70 S13G24    29.79R                  
SEDALIA        CLOUDY    60  51  72 S16G25    29.72R                  
WARRENSBURG    SUNNY     61  52  72 S13       29.69R                  
               
$$
MOZ051-052-059>065-221400-
...EAST CENTRAL MISSOURI...
  
CITY           SKY/WX    TMP DP  RH WIND       PRES   REMARKS
ST LOUIS INTL  CLOUDY    63  57  81 S13G22    29.82R                  
                   
$$
MOZ072>076-082>087-097>100-106>115-221400-
...SOUTH CENTRAL AND SOUTHEAST MISSOURI...
  
CITY           SKY/WX    TMP DP  RH WIND       PRES   REMARKS
CAPE GIRARDEAU CLOUDY    65  62  90 S9        29.91R                  
POPLAR BLUFF   CLOUDY    64  64 100 SE3       29.88R                  
WEST PLAINS    SUNNY     60  56  86 SE8       29.85R                  
                                       
$$